[[{"header":{"parameterUnit":"m.s-1","parameterCategory":2,"la1":30.2991,"la2":30.254,"lo1":-89.0895,"lo2":-89.0444,"dy":0.0017,"dx":0.0017,"nx":28,"ny":28,"refTime":"2024-02-08T03:00:00:Z","depth":"0","parameterNumber":2,"parameterNumberName":"U-component_of_CURRENTS"},"data":[0,0,0,0,0,0,0,0,0,0,0,0,0,0,0,0,0,0,0,0,0,0,0,0,0,0,0,0,0,0,0,0,0,0,0,0,0,0,0,0,0,0,0,0,0,0,0,0,0,0,0,0,0,0,0,0,0,0,0.3021,0.3021,0,0.3033,0.3033,0.3033,0.3013,0.3012,0.3012,0.3011,0.2984,0.2984,0.2984,0,0,0,0,0,0,0,0,0,0,0,0,0,0.2993,0.2994,0.3021,0.3022,0.3022,0.3033,0.3033,0.3033,0.3013,0.3012,0.3012,0.3011,0.2984,0.2984,0.2984,0,0,0,0,0,0,0,0,0,0,0,0,0,0.3003,0.2994,0.3021,0.3015,0.3015,0.3033,0.3033,0.3033,0.3013,0.3012,0.3012,0.3011,0.2984,0.2984,0.2984,0.2996,0,0,0.2982,0.2982,0,0,0,0,0,0,0,0,0.3003,0.3004,0.3015,0.3015,0.3015,0.3022,0.3013,0.3019,0.3013,0.3011,0.3011,0.3011,0.2995,0.2994,0.2995,0.2994,0.2993,0.2982,0.2982,0.2982,0.2982,0,0,0,0,0,0,0,0.3002,0.3003,0.3024,0.3016,0.3016,0.3015,0.3016,0.3014,0.3005,0.3011,0.3011,0.3015,0.2995,0.2996,0.2994,0.2993,0.2982,0.2982,0.2982,0.2982,0.3035,0.3036,0,0,0,0,0,0,0.3005,0.3003,0.3023,0.3024,0.3009,0.3017,0.3017,0.3019,0.3006,0.3004,0.3016,0.3015,0.2997,0.2995,0.2993,0.3026,0.2982,0.2982,0.2981,0.3033,0.3035,0.3037,0,0,0,0,0,0,0.3004,0.3007,0.3023,0.3015,0.3018,0.3018,0.3021,0.302,0.3025,0.301,0.3007,0.3023,0.2996,0.2994,0.3005,0.3024,0.2981,0.2981,0.3031,0.3034,0.3036,0.3078,0,0,0,0,0,0,0.3003,0.3006,0.3009,0.3016,0.3018,0.3041,0.3022,0.3021,0.303,0.3028,0.3015,0.3012,0.2995,0.3006,0.3005,0.3022,0.2981,0.3029,0.3032,0.3035,0.3075,0.3082,0.3088,0,0,0,0,0,0.3002,0.301,0.3009,0.3011,0.3022,0.3042,0.3044,0.304,0.3031,0.304,0.3035,0.3012,0.3025,0.3007,0.3005,0.3023,0.3028,0.3031,0.3035,0.3072,0.3081,0.3088,0,0,0,0,0,0,0.2996,0.3009,0.3008,0.3017,0.3033,0.304,0.3048,0.3048,0.3051,0.3049,0.3029,0.3027,0.3047,0.3035,0.3015,0.3051,0.3024,0.3028,0.3053,0.3061,0.3068,0.3081,0.298,0,0,0,0,0,0.2998,0.3008,0.3021,0.303,0.3039,0.3046,0.3053,0.3056,0.3061,0.3062,0.3052,0.3051,0.3062,0.306,0.3065,0.3079,0.309,0.3093,0.31,0.3105,0.3117,0.3156,0.3167,0.3049,0.3049,0.3049,0,0,0.2997,0.3007,0.3011,0.303,0.304,0.3058,0.3048,0.3068,0.3083,0.3059,0.3072,0.3075,0.3074,0.3094,0.3102,0.3082,0.3146,0.311,0.3114,0.3124,0.3162,0.3173,0.3183,0.3052,0.3051,0.3051,0,0,0.3,0.3012,0.3019,0.3039,0.3062,0.3072,0.3081,0.3096,0.3102,0.3119,0.3115,0.3134,0.3131,0.3144,0.3148,0.3197,0.3185,0.3196,0.323,0.3268,0.3278,0.3287,0.3318,0.333,0.3192,0.3192,0.3192,0,0.2996,0.301,0.3025,0.3043,0.306,0.3081,0.3097,0.3116,0.3131,0.3143,0.3127,0.316,0.3158,0.3199,0.3218,0.3212,0.3229,0.3195,0.3276,0.3285,0.3293,0.3323,0.3335,0.3195,0.3194,0.3194,0.3194,0,0.3006,0.3022,0.3034,0.3061,0.3081,0.3107,0.3135,0.3159,0.3167,0.3178,0.3217,0.3225,0.3243,0.3251,0.3247,0.331,0.3302,0.3284,0.3252,0.3307,0.3336,0.3348,0.3198,0.3197,0.3197,0.3196,0,0,0.2979,0.3029,0.3031,0.3046,0.3097,0.3111,0.3155,0.3193,0.3228,0.324,0.3281,0.3306,0.3314,0.3323,0.3329,0.3363,0.3437,0.3351,0.3351,0.3376,0.3523,0.3501,0.3511,0.3431,0.3433,0.3435,0.352,0,0.298,0.3007,0.3039,0.3071,0.3087,0.3135,0.3173,0.3213,0.3252,0.3301,0.3325,0.3367,0.3341,0.3366,0.3395,0.3438,0.347,0.3416,0.3471,0.3473,0.3442,0.3525,0.3397,0.3462,0.3531,0.3533,0.3535,0,0.297,0.2994,0.3018,0.3075,0.3088,0.3112,0.3185,0.3228,0.331,0.3346,0.3394,0.3421,0.3487,0.3457,0.3538,0.3505,0.3521,0.3541,0.3544,0.3518,0.3473,0.3419,0.348,0.3415,0.3552,0.3551,0.3549,0,0.2922,0.2976,0.2992,0.3013,0.3081,0.3102,0.3146,0.3228,0.3273,0.3388,0.3428,0.3504,0.3543,0.3587,0.3621,0.3592,0.3709,0.3666,0.3658,0.3656,0.3557,0.3543,0.3557,0.3724,0.3724,0.3724,0.3724,0,0.2901,0.2914,0.2968,0.2977,0.3008,0.3069,0.312,0.3192,0.3291,0.335,0.344,0.3507,0.3579,0.3642,0.3665,0.3708,0.3739,0.3692,0.3689,0.3569,0.3555,0.35,0.3463,0.3727,0.3726,0.3726,0.3725,0,0.2837,0.2875,0.2897,0.2962,0.2979,0.2999,0.3085,0.3132,0.3242,0.3328,0.3368,0.3518,0.3628,0.3685,0.3782,0.3756,0.3712,0.3807,0.3664,0.3643,0.356,0.3529,0.3409,0.3303,0.3821,0.3821,0.3821,0,0.2806,0.2809,0.2864,0.2871,0.2896,0.2938,0.2971,0.3089,0.3144,0.3329,0.3362,0.3519,0.3607,0.3749,0.378,0.3832,0.3718,0.3725,0.3645,0.3567,0.3531,0.3376,0.3283,0.3531,0.3528,0.3526,0.3525,0,0.2752,0.277,0.2789,0.2803,0.2824,0.2853,0.2909,0.2938,0.3086,0.318,0.3316,0.3416,0.3581,0.3617,0.3707,0.3717,0.3555,0.3689,0.3641,0.3348,0.3145,0.3036,0.3464,0.3508,0.351,0.3511,0.3512,0.3513,0.2709,0.2703,0.2722,0.2723,0.2745,0.2742,0.2725,0.2811,0.2887,0.2988,0.3181,0.3286,0.3441,0.3571,0.3558,0.3495,0.3452,0.34,0.3385,0.3247,0.3091,0.3494,0.3511,0.3513,0.3514,0.3515,0.3516,0,0.2638,0.2635,0.264,0.2624,0.2594,0.2642,0.2661,0.2631,0.2667,0.2833,0.2943,0.3128,0.3194,0.3293,0.3334,0.3219,0.303,0.3133,0.2884,0.2819,0.3221,0.3157,0.3057,0.3057,0.3057,0.3057,0.3057,0.3057,0.2602,0.2565,0.2557,0.2469,0.2452,0.2375,0.2353,0.2356,0.2426,0.2524,0.2637,0.2779,0.3052,0.3179,0.312,0.3035,0.2791,0.2652,0.2642,0.295,0.2973,0.2994,0.2926,0.278,0.2779,0.2103,0.2098,0.2094]},{"header":{"parameterUnit":"m.s-1","parameterCategory":2,"la1":30.2991,"la2":30.254,"lo1":-89.0895,"lo2":-89.0444,"dy":0.0017,"dx":0.0017,"nx":28,"ny":28,"refTime":"2024-02-08T03:00:00:Z","depth":"0","parameterNumber":3,"parameterNumberName":"V-component_of_CURRENTS"},"data":[0,0,0,0,0,0,0,0,0,0,0,0,0,0,0,0,0,0,0,0,0,0,0,0,0,0,0,0,0,0,0,0,0,0,0,0,0,0,0,0,0,0,0,0,0,0,0,0,0,0,0,0,0,0,0,0,0,0,0.0233,0.0233,0,0.0171,0.0171,0.017,0.0125,0.0125,0.0124,0.0124,0.0051,0.0049,0.0047,0,0,0,0,0,0,0,0,0,0,0,0,0,0.0255,0.0255,0.0233,0.0233,0.0232,0.0172,0.0171,0.017,0.0125,0.0125,0.0124,0.0124,0.0051,0.0049,0.0047,0,0,0,0,0,0,0,0,0,0,0,0,0,0.0223,0.0255,0.0234,0.0204,0.0201,0.0172,0.0171,0.0169,0.0125,0.0125,0.0124,0.0124,0.0052,0.005,0.0047,0.0037,0,0,0.0039,0.0038,0,0,0,0,0,0,0,0,0.0225,0.0222,0.0209,0.0206,0.0203,0.0157,0.0151,0.0125,0.0125,0.0152,0.0124,0.0124,0.0087,0.0081,0.0068,0.0033,0.003,0.0039,0.0037,0.0036,0.0035,0,0,0,0,0,0,0,0.0227,0.0224,0.0207,0.0208,0.0204,0.0174,0.0169,0.0146,0.012,0.0149,0.0147,0.0143,0.0085,0.007,0.0066,0.0029,0.0039,0.0036,0.0035,0.0034,-0.0016,-0.0016,0,0,0,0,0,0,0.0242,0.0226,0.0209,0.0205,0.0215,0.0174,0.0169,0.0171,0.012,0.0113,0.0143,0.0141,0.0075,0.0069,0.0063,0.0067,0.0036,0.0033,0.0032,-0.0017,-0.0016,-0.0016,0,0,0,0,0,0,0.0243,0.0241,0.0212,0.0215,0.021,0.0175,0.0176,0.017,0.016,0.0116,0.0108,0.0142,0.0075,0.0067,0.0049,0.0063,0.0032,0.003,-0.0017,-0.0016,-0.0016,0.0063,0,0,0,0,0,0,0.0244,0.0242,0.0246,0.0217,0.021,0.0205,0.0177,0.0169,0.0159,0.0155,0.0112,0.0105,0.0074,0.0053,0.0047,0.0059,0.0028,-0.0017,-0.0017,-0.0016,0.006,0.0066,0.0071,0,0,0,0,0,0.0245,0.0259,0.0247,0.0245,0.0218,0.0206,0.0199,0.0171,0.0159,0.0161,0.0131,0.0106,0.0051,0.0052,0.0044,0.0056,-0.0017,-0.0017,-0.0016,0.0058,0.0065,0.0071,0,0,0,0,0,0,0.027,0.0255,0.0241,0.0249,0.0232,0.0199,0.0198,0.0179,0.0156,0.0155,0.0111,0.0102,0.0089,0.0061,0.0062,0.0041,0.0012,0.0011,0.0071,0.0078,0.0083,0.0106,0.0025,0,0,0,0,0,0.0278,0.0285,0.0262,0.0268,0.0263,0.0231,0.0222,0.0207,0.0183,0.0172,0.0141,0.0109,0.0084,0.0073,0.0044,0.0037,0.0003,0.0037,0.0043,0.0048,0.006,0.0021,0.0024,-0.0014,-0.0014,-0.0014,0,0,0.0288,0.0282,0.0284,0.0273,0.0257,0.0263,0.0225,0.0222,0.0227,0.0169,0.0164,0.0127,0.0085,0.0075,0.0067,0.0055,0.004,0.0049,0.0054,0.0062,0.0022,0.0026,0.0029,-0.0014,-0.0014,-0.0014,0,0,0.0318,0.0308,0.0324,0.0316,0.0303,0.0289,0.0294,0.0266,0.0254,0.0242,0.0203,0.0177,0.0138,0.0113,0.0095,0.0114,0.0068,0.0103,0.0154,0.0117,0.012,0.0122,0.0083,0.0081,0.011,0.011,0.011,0,0.033,0.035,0.0326,0.034,0.0344,0.0308,0.033,0.0313,0.0283,0.0279,0.0252,0.0195,0.0157,0.0149,0.0154,0.0128,0.0099,0.0136,0.0126,0.0127,0.0128,0.0087,0.0084,0.0114,0.0113,0.0113,0.0112,0,0.0372,0.0386,0.0397,0.0407,0.0406,0.042,0.0399,0.0395,0.0374,0.0353,0.0332,0.0274,0.0243,0.0223,0.0195,0.0189,0.0162,0.0136,0.0114,0.0137,0.0091,0.0087,0.0119,0.0118,0.0117,0.0116,0,0,0.0408,0.0425,0.0429,0.0448,0.0447,0.0455,0.0466,0.0468,0.0484,0.0434,0.0443,0.0385,0.035,0.0327,0.0281,0.0249,0.0224,0.0206,0.0202,0.0175,0.0141,0.0138,0.0132,0.0198,0.0198,0.0197,0.0106,0,0.0451,0.0498,0.0494,0.0541,0.0566,0.0545,0.0563,0.0557,0.054,0.0536,0.0471,0.0458,0.0391,0.0381,0.0337,0.0259,0.0216,0.0251,0.0114,0.011,0.0112,0.0128,0.0166,0.009,0.0101,0.01,0.0099,0,0.05,0.0526,0.0583,0.0619,0.0628,0.0652,0.0682,0.0693,0.0674,0.0659,0.0625,0.0571,0.0522,0.0457,0.0331,0.0358,0.0259,0.0186,0.018,0.015,0.0099,0.0066,0.008,-0.0075,0.0092,0.0093,0.0093,0,0.0551,0.0593,0.0647,0.0658,0.0688,0.0713,0.0732,0.0733,0.0761,0.0742,0.075,0.0671,0.0643,0.0512,0.0363,0.0347,0.022,0.0171,0.0068,0.0066,0.0058,0.0056,-0.0084,0.0072,0.0072,0.0073,0.0073,0,0.0606,0.0646,0.0678,0.0706,0.0774,0.0774,0.0845,0.0843,0.0865,0.0916,0.0822,0.0838,0.0657,0.0561,0.0402,0.0237,0.0243,0.0085,0.0048,0.0086,0.0088,-0.0081,-0.018,0.0069,0.007,0.0071,0.0071,0,0.0652,0.0671,0.0736,0.0782,0.0802,0.0853,0.0925,0.0977,0.0979,0.1041,0.1042,0.097,0.0853,0.0657,0.0457,0.0303,0.0041,0.0065,0.0125,0.0097,-0.0146,-0.0241,-0.0429,-0.0512,-0.0067,-0.0068,-0.0068,0,0.0681,0.0721,0.0795,0.084,0.0866,0.0941,0.1,0.1033,0.11,0.1133,0.1174,0.1082,0.1048,0.0748,0.0471,0.0196,0.0023,0.0034,0.0002,-0.0145,-0.0279,-0.035,-0.0411,0.0012,0.0012,0.0012,0.0012,0,0.0736,0.0765,0.0817,0.0909,0.0982,0.107,0.116,0.1227,0.1284,0.134,0.1399,0.1375,0.1108,0.0862,0.0486,0.029,-0.0069,0.0028,-0.0141,-0.0237,-0.0306,-0.0406,0.0049,0.0014,0.0014,0.0014,0.0014,0.0013,0.078,0.0826,0.0897,0.0983,0.1071,0.1185,0.1264,0.1378,0.1496,0.1598,0.1577,0.1588,0.1235,0.0738,0.0444,-0.0048,-0.0087,-0.0203,-0.031,-0.037,-0.0437,0.0027,-0.0036,-0.0037,-0.0037,-0.0037,-0.0038,0,0.0829,0.0879,0.0963,0.1069,0.1168,0.1208,0.136,0.1456,0.1608,0.1739,0.1803,0.1672,0.1211,0.0738,0.0075,-0.0303,-0.0448,-0.0517,-0.0614,-0.0666,-0.0262,-0.0243,-0.0331,-0.0331,-0.033,-0.033,-0.033,-0.033,0.0857,0.0937,0.0975,0.1128,0.1205,0.134,0.1427,0.1581,0.1715,0.1877,0.1936,0.1965,0.164,0.04,-0.0434,-0.0637,-0.0903,-0.0965,-0.1129,-0.0854,-0.0833,-0.0813,-0.0817,-0.1024,-0.1025,-0.1462,-0.1467,-0.147]}],[{"header":{"parameterUnit":"m.s-1","parameterCategory":2,"la1":30.2991,"la2":30.254,"lo1":-89.0895,"lo2":-89.0444,"dy":0.0017,"dx":0.0017,"nx":28,"ny":28,"refTime":"2024-02-08T03:00:00:Z","depth":"2","parameterNumber":2,"parameterNumberName":"U-component_of_CURRENTS"},"data":[0,0,0,0,0,0,0,0,0,0,0,0,0,0,0,0,0,0,0,0,0,0,0,0,0,0,0,0,0,0,0,0,0,0,0,0,0,0,0,0,0,0,0,0,0,0,0,0,0,0,0,0,0,0,0,0,0,0,0.2874,0.2874,0,0.289,0.289,0.289,0.2881,0.288,0.288,0.288,0.2869,0.2868,0.2868,0,0,0,0,0,0,0,0,0,0,0,0,0,0.2841,0.2841,0.2874,0.2874,0.2874,0.289,0.289,0.289,0.2881,0.288,0.288,0.288,0.2869,0.2869,0.2868,0,0,0,0,0,0,0,0,0,0,0,0,0,0.2854,0.2841,0.2873,0.2873,0.2873,0.289,0.289,0.289,0.2881,0.288,0.288,0.288,0.2869,0.2869,0.2868,0.2876,0,0,0.2868,0.2868,0,0,0,0,0,0,0,0,0.2853,0.2855,0.2873,0.2873,0.2874,0.2885,0.2874,0.2885,0.2881,0.2876,0.288,0.2879,0.2873,0.2873,0.2874,0.2875,0.2875,0.2868,0.2868,0.2868,0.2868,0,0,0,0,0,0,0,0.2852,0.2854,0.2878,0.2873,0.2874,0.2874,0.2875,0.2876,0.2874,0.2876,0.2876,0.2881,0.2873,0.2874,0.2874,0.2875,0.2868,0.2868,0.2868,0.2868,0.2929,0.293,0,0,0,0,0,0,0.2854,0.2853,0.2877,0.2879,0.2864,0.2875,0.2877,0.288,0.2875,0.2875,0.2882,0.2881,0.2874,0.2874,0.2873,0.2914,0.2868,0.2868,0.2868,0.2927,0.2929,0.2931,0,0,0,0,0,0,0.2854,0.2856,0.2877,0.2868,0.2871,0.2877,0.288,0.288,0.2892,0.288,0.2878,0.2894,0.2874,0.2873,0.289,0.2912,0.2868,0.2868,0.2925,0.2928,0.293,0.2974,0,0,0,0,0,0,0.2853,0.2856,0.2861,0.2868,0.2872,0.2896,0.2881,0.2881,0.2896,0.2895,0.289,0.2888,0.2874,0.289,0.289,0.2911,0.2868,0.2923,0.2926,0.2929,0.297,0.2977,0.2984,0,0,0,0,0,0.2851,0.286,0.2861,0.2864,0.2878,0.2897,0.2899,0.29,0.2897,0.2908,0.2908,0.2888,0.291,0.2891,0.289,0.2912,0.2922,0.2925,0.2929,0.2967,0.2976,0.2984,0,0,0,0,0,0,0.2847,0.2861,0.2862,0.2874,0.289,0.2897,0.2908,0.291,0.2919,0.2921,0.2905,0.2904,0.293,0.2919,0.2899,0.2942,0.2915,0.2918,0.2944,0.2952,0.2959,0.2971,0.2868,0,0,0,0,0,0.285,0.2861,0.2875,0.2887,0.2896,0.2905,0.2914,0.2919,0.2928,0.2931,0.2928,0.2931,0.2945,0.2946,0.2954,0.2971,0.298,0.2988,0.2995,0.3,0.3012,0.3048,0.3059,0.2943,0.2943,0.2943,0,0,0.2851,0.2861,0.2867,0.2887,0.2898,0.2917,0.291,0.2932,0.2949,0.2929,0.295,0.2956,0.2958,0.2982,0.2992,0.2973,0.304,0.3005,0.301,0.3019,0.3053,0.3064,0.3074,0.2946,0.2945,0.2945,0,0,0.2856,0.2871,0.2879,0.2899,0.2924,0.2935,0.2946,0.2963,0.2973,0.2994,0.2993,0.3017,0.3021,0.3034,0.3039,0.309,0.3079,0.3091,0.3127,0.3161,0.3171,0.318,0.3208,0.3219,0.3088,0.3088,0.3088,0,0.2855,0.2871,0.2886,0.2905,0.2923,0.2945,0.2963,0.2983,0.3003,0.3017,0.3007,0.3048,0.3048,0.3089,0.311,0.3104,0.312,0.3091,0.317,0.3178,0.3186,0.3213,0.3224,0.3091,0.309,0.309,0.309,0,0.2867,0.2885,0.2898,0.2926,0.2947,0.2975,0.3003,0.303,0.3044,0.3058,0.3102,0.3112,0.3135,0.3144,0.3141,0.3203,0.3196,0.3177,0.3145,0.32,0.3226,0.3236,0.3094,0.3094,0.3093,0.3092,0,0,0.2844,0.2895,0.2898,0.2914,0.2965,0.298,0.3026,0.3066,0.3103,0.3122,0.3164,0.3195,0.3207,0.3217,0.3223,0.3255,0.3327,0.3244,0.3245,0.3267,0.3407,0.3372,0.338,0.3321,0.3323,0.3325,0.3403,0,0.2847,0.2877,0.2907,0.2942,0.296,0.3008,0.3046,0.3089,0.3131,0.3181,0.3207,0.3252,0.3233,0.326,0.3288,0.3328,0.3358,0.3308,0.3357,0.3358,0.3315,0.3392,0.3108,0.3151,0.3413,0.3415,0.3416,0,0.2841,0.2865,0.2892,0.2949,0.2963,0.299,0.3064,0.3108,0.3191,0.3228,0.328,0.3307,0.3373,0.3345,0.3424,0.3394,0.341,0.3427,0.3429,0.3389,0.3343,0.314,0.3161,0.3434,0.3433,0.3432,0.343,0,0.2797,0.2852,0.2871,0.2892,0.2961,0.2986,0.3031,0.3113,0.3159,0.3272,0.3312,0.3388,0.3428,0.3469,0.3502,0.3476,0.3582,0.3544,0.3521,0.3518,0.3284,0.3257,0.3598,0.3598,0.3598,0.3597,0.3597,0,0.2779,0.2796,0.2853,0.2863,0.2899,0.2959,0.3015,0.3086,0.3183,0.3241,0.333,0.3392,0.3463,0.3521,0.3541,0.3574,0.3611,0.3553,0.3546,0.3292,0.3267,0.3511,0.35,0.36,0.36,0.3599,0.3599,0,0.2721,0.276,0.2786,0.2854,0.2874,0.2899,0.2988,0.3034,0.3143,0.3227,0.3266,0.3406,0.3507,0.3558,0.3646,0.3617,0.366,0.3653,0.3355,0.3313,0.3561,0.3552,0.3649,0.3649,0.3648,0.3648,0.3648,0,0.2693,0.2699,0.2759,0.277,0.2798,0.2846,0.2881,0.2998,0.3051,0.3228,0.3258,0.3403,0.3473,0.3595,0.36,0.3636,0.3681,0.3382,0.3285,0.3588,0.3572,0.3563,0.3554,0.2986,0.298,0.2976,0.2972,0,0.2643,0.2665,0.2686,0.2707,0.2733,0.2764,0.2824,0.2851,0.2995,0.308,0.3201,0.3283,0.3413,0.3346,0.3408,0.3387,0.3359,0.3293,0.3684,0.3031,0.2973,0.2954,0.2965,0.2931,0.2935,0.2938,0.294,0.2942,0.2604,0.2601,0.2625,0.2633,0.2659,0.2659,0.2645,0.2724,0.279,0.2869,0.3043,0.3072,0.3131,0.3103,0.3028,0.2971,0.3206,0.3045,0.3055,0.307,0.2993,0.294,0.2876,0.288,0.2883,0.2886,0.2888,0,0.2537,0.2538,0.2548,0.2539,0.2513,0.2565,0.2584,0.2545,0.2567,0.2681,0.2759,0.26,0.2576,0.2622,0.2481,0.2506,0.2428,0.2397,0.2254,0.23,0.2339,0.2219,0.19,0.1896,0.1893,0.189,0,0,0.2502,0.2471,0.2464,0.2386,0.2379,0.2307,0.2287,0.2265,0.2294,0.2278,0.2279,0.247,0.2564,0.2202,0.2169,0.1999,0.212,0.192,0.2723,0.2601,0.2635,0.2738,0.261,0,0,0,0,0]},{"header":{"parameterUnit":"m.s-1","parameterCategory":2,"la1":30.2991,"la2":30.254,"lo1":-89.0895,"lo2":-89.0444,"dy":0.0017,"dx":0.0017,"nx":28,"ny":28,"refTime":"2024-02-08T03:00:00:Z","depth":"2","parameterNumber":3,"parameterNumberName":"V-component_of_CURRENTS"},"data":[0,0,0,0,0,0,0,0,0,0,0,0,0,0,0,0,0,0,0,0,0,0,0,0,0,0,0,0,0,0,0,0,0,0,0,0,0,0,0,0,0,0,0,0,0,0,0,0,0,0,0,0,0,0,0,0,0,0,0.0155,0.0155,0,0.0097,0.0096,0.0095,0.0054,0.0054,0.0054,0.0053,-0.0016,-0.0018,-0.002,0,0,0,0,0,0,0,0,0,0,0,0,0,0.0176,0.0176,0.0155,0.0155,0.0154,0.0097,0.0096,0.0095,0.0054,0.0054,0.0054,0.0053,-0.0016,-0.0018,-0.002,0,0,0,0,0,0,0,0,0,0,0,0,0,0.0146,0.0176,0.0155,0.0128,0.0125,0.0097,0.0096,0.0094,0.0054,0.0054,0.0053,0.0053,-0.0015,-0.0018,-0.002,-0.0031,0,0,-0.0028,-0.0029,0,0,0,0,0,0,0,0,0.0147,0.0145,0.0133,0.013,0.0127,0.0084,0.0077,0.0052,0.0054,0.0079,0.0053,0.0053,0.0017,0.0012,-0.0001,-0.0035,-0.0038,-0.0028,-0.003,-0.0031,-0.0032,0,0,0,0,0,0,0,0.015,0.0147,0.013,0.0132,0.0128,0.01,0.0096,0.0072,0.0049,0.0077,0.0074,0.0071,0.0015,0.0002,-0.0003,-0.0039,-0.0028,-0.003,-0.0032,-0.0033,-0.0082,-0.0082,0,0,0,0,0,0,0.0164,0.0149,0.0132,0.0129,0.0139,0.01,0.0095,0.0096,0.0049,0.0042,0.0071,0.0069,0.0006,0.0,-0.0005,-0.0002,-0.0031,-0.0033,-0.0035,-0.0082,-0.0082,-0.0082,0,0,0,0,0,0,0.0165,0.0163,0.0134,0.0138,0.0133,0.0101,0.0102,0.0095,0.0087,0.0045,0.0038,0.007,0.0006,-0.0002,-0.0018,-0.0005,-0.0034,-0.0037,-0.0083,-0.0082,-0.0082,-0.0007,0,0,0,0,0,0,0.0165,0.0164,0.0168,0.014,0.0133,0.0128,0.0102,0.0094,0.0086,0.0083,0.0042,0.0035,0.0005,-0.0014,-0.0021,-0.0009,-0.0039,-0.0083,-0.0082,-0.0082,-0.001,-0.0004,0.0001,0,0,0,0,0,0.0166,0.018,0.0169,0.0166,0.0141,0.0129,0.0123,0.0097,0.0086,0.0088,0.006,0.0036,-0.0017,-0.0016,-0.0024,-0.0013,-0.0083,-0.0083,-0.0082,-0.0012,-0.0005,0.0001,0,0,0,0,0,0,0.0191,0.0176,0.0163,0.0171,0.0154,0.0123,0.0122,0.0105,0.0083,0.0082,0.0041,0.0032,0.002,-0.0007,-0.0006,-0.0027,-0.0054,-0.0055,0.0002,0.0008,0.0013,0.0034,-0.0041,0,0,0,0,0,0.0199,0.0205,0.0182,0.0188,0.0184,0.0154,0.0145,0.0131,0.0108,0.0098,0.0069,0.0038,0.0015,0.0004,-0.0024,-0.0032,-0.0064,-0.0032,-0.0026,-0.0022,-0.0011,-0.0049,-0.0046,-0.008,-0.008,-0.008,0,0,0.0208,0.0202,0.0204,0.0194,0.0178,0.0183,0.0148,0.0145,0.0149,0.0095,0.0091,0.0056,0.0015,0.0005,-0.0003,-0.0014,-0.003,-0.0021,-0.0016,-0.0008,-0.0048,-0.0045,-0.0042,-0.008,-0.008,-0.008,0,0,0.0236,0.0227,0.0242,0.0234,0.0222,0.0208,0.0213,0.0187,0.0175,0.0165,0.0128,0.0103,0.0066,0.0041,0.0023,0.004,-0.0003,0.0031,0.0079,0.0041,0.0044,0.0046,0.0008,0.0006,0.0036,0.0036,0.0036,0,0.0248,0.0266,0.0244,0.0256,0.026,0.0227,0.0247,0.023,0.0202,0.0198,0.0174,0.012,0.0083,0.0073,0.0078,0.0054,0.0026,0.0061,0.005,0.0051,0.0052,0.0012,0.0009,0.004,0.004,0.0039,0.0039,0,0.0286,0.03,0.031,0.0319,0.0318,0.0331,0.0311,0.0306,0.0288,0.0268,0.0248,0.0192,0.0163,0.0144,0.0117,0.011,0.0085,0.006,0.0038,0.006,0.0016,0.0011,0.0045,0.0044,0.0043,0.0042,0,0,0.032,0.0336,0.034,0.0358,0.0357,0.0364,0.0373,0.0375,0.0389,0.0343,0.035,0.0295,0.0263,0.0241,0.0197,0.0164,0.014,0.0125,0.0121,0.0096,0.0059,0.0054,0.0047,0.0115,0.0115,0.0114,0.0026,0,0.0361,0.0404,0.04,0.0445,0.0468,0.0448,0.0464,0.0457,0.0442,0.0437,0.0374,0.0361,0.0301,0.0291,0.0248,0.0173,0.0132,0.0166,0.0035,0.0031,0.003,0.0044,0.0073,-0.0001,0.0021,0.002,0.002,0,0.0407,0.0431,0.0484,0.0517,0.0526,0.0549,0.0575,0.0584,0.0565,0.055,0.0519,0.0468,0.042,0.036,0.0239,0.0266,0.0173,0.0102,0.0097,0.0065,0.0017,-0.0021,-0.0011,0.0012,0.0012,0.0013,0.0013,0,0.0454,0.0494,0.0545,0.0554,0.0582,0.0606,0.0624,0.0624,0.0648,0.0629,0.0637,0.0559,0.0532,0.0408,0.0267,0.0253,0.0128,0.0083,-0.0016,-0.0018,-0.0031,-0.0034,-0.0011,-0.0011,-0.0011,-0.001,-0.001,0,0.0506,0.0544,0.0574,0.0601,0.0665,0.0664,0.0732,0.0729,0.0747,0.0794,0.0705,0.0717,0.0545,0.0451,0.0301,0.0143,0.0149,-0.0001,-0.0037,-0.0005,-0.0004,-0.0024,-0.0024,-0.0014,-0.0013,-0.0012,-0.0012,0,0.055,0.0568,0.0629,0.0672,0.0692,0.074,0.0809,0.0856,0.0858,0.0914,0.0914,0.084,0.0725,0.0539,0.0345,0.0203,0.0039,-0.0026,0.0026,-0.0002,-0.0097,-0.0093,-0.0151,-0.0152,-0.0153,-0.0153,-0.0154,0,0.0577,0.0615,0.0685,0.0729,0.0755,0.0826,0.0882,0.0912,0.0973,0.0998,0.1034,0.0941,0.0899,0.061,0.0349,0.0088,0.0043,-0.0067,-0.0095,-0.008,-0.011,-0.0104,-0.0099,-0.0093,-0.0093,-0.0093,-0.0093,0,0.0628,0.0656,0.0705,0.0794,0.0864,0.0948,0.1032,0.1093,0.1143,0.1191,0.1237,0.1205,0.0945,0.0695,0.0339,0.0165,-0.0023,-0.0075,-0.0072,-0.0052,-0.003,-0.0057,-0.0053,-0.0092,-0.0092,-0.0092,-0.0092,-0.0092,0.0669,0.0711,0.0779,0.0864,0.0948,0.1054,0.1129,0.123,0.1334,0.1411,0.1385,0.1342,0.1061,0.0612,0.0303,-0.0024,-0.0011,-0.0138,-0.0137,-0.0136,-0.0103,-0.0082,-0.0149,-0.0149,-0.015,-0.015,-0.015,0,0.0714,0.0761,0.0841,0.0942,0.1037,0.1078,0.1218,0.1298,0.143,0.1511,0.1552,0.1275,0.0996,0.0657,0.0175,-0.0106,-0.0125,-0.0199,-0.0169,-0.0166,-0.0164,-0.0133,-0.0188,-0.0189,-0.019,-0.0191,0,0,0.0738,0.0813,0.0849,0.0994,0.1072,0.1198,0.1279,0.1401,0.149,0.156,0.1546,0.1513,0.1104,0.0744,0.0361,0.0077,0.0024,0.003,0.0096,0.0181,0.0186,-0.0091,-0.0034,0,0,0,0,0]}],[{"header":{"parameterUnit":"m.s-1","parameterCategory":2,"la1":30.2991,"la2":30.254,"lo1":-89.0895,"lo2":-89.0444,"dy":0.0017,"dx":0.0017,"nx":28,"ny":28,"refTime":"2024-02-08T03:00:00:Z","depth":"4","parameterNumber":2,"parameterNumberName":"U-component_of_CURRENTS"},"data":[0,0,0,0,0,0,0,0,0,0,0,0,0,0,0,0,0,0,0,0,0,0,0,0,0,0,0,0,0,0,0,0,0,0,0,0,0,0,0,0,0,0,0,0,0,0,0,0,0,0,0,0,0,0,0,0,0,0,0.1933,0.1933,0,0.1996,0.1996,0.1997,0.2052,0.2053,0.2054,0.2055,0.213,0.2132,0.2133,0,0,0,0,0,0,0,0,0,0,0,0,0,0.1852,0.1853,0.1932,0.1933,0.1934,0.1996,0.1996,0.1997,0.2052,0.2053,0.2054,0.2055,0.213,0.2131,0.2133,0,0,0,0,0,0,0,0,0,0,0,0,0,0.1896,0.1853,0.1932,0.1971,0.1975,0.1996,0.1996,0.1997,0.2052,0.2053,0.2054,0.2055,0.2129,0.2131,0.2133,0.2121,0,0,0.2139,0.214,0,0,0,0,0,0,0,0,0.1894,0.1899,0.1964,0.1968,0.1973,0.2019,0.1996,0.204,0.2052,0.2021,0.2055,0.2056,0.2095,0.2099,0.2106,0.2124,0.2128,0.2139,0.214,0.2141,0.2142,0,0,0,0,0,0,0,0.189,0.1896,0.1956,0.1965,0.197,0.1982,0.199,0.2004,0.2049,0.2023,0.2028,0.2038,0.2097,0.2104,0.2108,0.2129,0.2139,0.2141,0.2142,0.2143,0.2265,0.2267,0,0,0,0,0,0,0.1886,0.1893,0.1954,0.1958,0.1938,0.1983,0.1991,0.2001,0.2049,0.2057,0.2037,0.204,0.21,0.2106,0.2111,0.2205,0.2141,0.2143,0.2144,0.2263,0.2266,0.2268,0,0,0,0,0,0,0.1884,0.189,0.1951,0.1928,0.1937,0.1983,0.1994,0.2002,0.2051,0.2059,0.2068,0.2083,0.2101,0.2108,0.2165,0.2205,0.2144,0.2146,0.2261,0.2264,0.2267,0.2326,0,0,0,0,0,0,0.1881,0.1889,0.1914,0.1928,0.1939,0.199,0.1993,0.2002,0.2053,0.206,0.21,0.2106,0.2103,0.2162,0.2167,0.2206,0.2147,0.2258,0.2262,0.2266,0.2321,0.2331,0.2339,0,0,0,0,0,0.1878,0.19,0.1915,0.1924,0.1965,0.1991,0.1999,0.2033,0.2055,0.2081,0.2115,0.2107,0.2191,0.2165,0.217,0.2211,0.2256,0.2261,0.2266,0.2317,0.2329,0.2338,0,0,0,0,0,0,0.188,0.1908,0.1925,0.1957,0.1986,0.2002,0.2036,0.2056,0.2103,0.2124,0.213,0.2138,0.2204,0.2202,0.2173,0.226,0.2224,0.223,0.2261,0.2272,0.2281,0.2285,0.2149,0,0,0,0,0,0.189,0.192,0.1942,0.1974,0.1992,0.2023,0.2047,0.2071,0.2103,0.2127,0.2155,0.2188,0.222,0.2243,0.2267,0.231,0.2311,0.2343,0.2351,0.2359,0.2368,0.2402,0.2414,0.2284,0.2284,0.2284,0,0,0.1901,0.1922,0.1941,0.1979,0.2007,0.2036,0.2042,0.2091,0.2126,0.2126,0.2199,0.2224,0.224,0.2293,0.2322,0.23,0.2398,0.2365,0.2371,0.2376,0.2408,0.242,0.2432,0.2287,0.2286,0.2286,0,0,0.1919,0.1958,0.1982,0.2011,0.2061,0.2078,0.2102,0.2143,0.2179,0.2237,0.2253,0.2306,0.235,0.237,0.2383,0.2456,0.2445,0.2471,0.2516,0.255,0.256,0.2569,0.2589,0.2599,0.2472,0.2472,0.2472,0,0.1935,0.1967,0.1996,0.2025,0.2057,0.2101,0.2133,0.2171,0.223,0.2262,0.2273,0.2364,0.2383,0.244,0.2473,0.2475,0.2489,0.2471,0.256,0.2569,0.2577,0.2595,0.2605,0.2476,0.2475,0.2475,0.2475,0,0.1956,0.2,0.2022,0.2072,0.2107,0.2151,0.2196,0.2252,0.2302,0.2331,0.2416,0.2448,0.2499,0.2518,0.252,0.2597,0.2586,0.2567,0.2528,0.2594,0.2608,0.2618,0.2481,0.2479,0.2478,0.2478,0,0,0.1938,0.202,0.2032,0.2067,0.2141,0.2166,0.224,0.2303,0.2362,0.2424,0.2489,0.2555,0.2585,0.2603,0.262,0.2654,0.2731,0.2647,0.2647,0.2657,0.2806,0.2635,0.2629,0.2731,0.2733,0.2735,0.2791,0,0.1951,0.2009,0.205,0.2119,0.2152,0.2221,0.2279,0.2347,0.2416,0.2492,0.254,0.2614,0.2612,0.2658,0.2692,0.273,0.2761,0.2717,0.2748,0.2749,0.2582,0.2636,0.2742,0.2799,0.2801,0.2802,0.2804,0,0.1947,0.1991,0.2054,0.2144,0.2168,0.2221,0.233,0.2393,0.25,0.2557,0.2635,0.2677,0.2759,0.2742,0.2826,0.2803,0.2817,0.2829,0.283,0.2656,0.2597,0.272,0.2822,0.282,0.2819,0.2818,0.2817,0,0.1897,0.1991,0.2046,0.2078,0.2183,0.2239,0.2308,0.2417,0.2477,0.2615,0.2667,0.2761,0.2819,0.2861,0.2894,0.2878,0.2965,0.2935,0.2789,0.2777,0.2887,0.2876,0.2986,0.2986,0.2986,0.2986,0.2985,0,0.1869,0.192,0.2037,0.2065,0.2143,0.2228,0.2323,0.2412,0.253,0.2593,0.2704,0.2756,0.2856,0.2906,0.2925,0.2883,0.2989,0.2805,0.2781,0.2911,0.2902,0.2894,0.2882,0.2988,0.2987,0.2987,0.2986,0,0.1797,0.1876,0.1947,0.2074,0.2119,0.2179,0.2319,0.2378,0.2511,0.2599,0.2646,0.2777,0.2848,0.2908,0.2982,0.2897,0.2895,0.2852,0.2996,0.2979,0.2679,0.267,0.269,0.2684,0.2679,0.2675,0.2672,0,0.1759,0.1791,0.1937,0.198,0.2046,0.2148,0.2209,0.2357,0.241,0.2585,0.2602,0.2727,0.2792,0.2744,0.2842,0.285,0.2816,0.2786,0.2721,0.2673,0.265,0.2649,0.2647,0.2665,0.2664,0.2662,0.2661,0,0.1688,0.1761,0.182,0.191,0.1986,0.2052,0.2152,0.2169,0.2326,0.2461,0.2489,0.2522,0.2588,0.2636,0.2655,0.2661,0.2791,0.2737,0.2745,0.2684,0.2644,0.2625,0.2628,0.2645,0.2647,0.2649,0.265,0,0.1645,0.1667,0.1755,0.1816,0.1904,0.1924,0.1993,0.2039,0.2104,0.2278,0.2292,0.2426,0.256,0.254,0.257,0.2552,0.2512,0.2416,0.2441,0.246,0.2359,0.2272,0.2144,0,0,0,0,0,0.1585,0.1593,0.1648,0.1699,0.1778,0.1826,0.1934,0.2001,0.214,0.2096,0.218,0.2232,0.2268,0.2352,0.2288,0.249,0.2536,0.2406,0.244,0.2555,0.2574,0.2477,0,0,0,0,0,0,0.1543,0.1594,0.1606,0.1585,0.1595,0.166,0.1723,0.1821,0.1798,0.1949,0.198,0.2096,0.2171,0.2276,0.2245,0.2269,0.2243,0.2497,0.2491,0.2544,0.2561,0.2576,0.2483,0,0,0,0,0]},{"header":{"parameterUnit":"m.s-1","parameterCategory":2,"la1":30.2991,"la2":30.254,"lo1":-89.0895,"lo2":-89.0444,"dy":0.0017,"dx":0.0017,"nx":28,"ny":28,"refTime":"2024-02-08T03:00:00:Z","depth":"4","parameterNumber":3,"parameterNumberName":"V-component_of_CURRENTS"},"data":[0,0,0,0,0,0,0,0,0,0,0,0,0,0,0,0,0,0,0,0,0,0,0,0,0,0,0,0,0,0,0,0,0,0,0,0,0,0,0,0,0,0,0,0,0,0,0,0,0,0,0,0,0,0,0,0,0,0,0.0095,0.0095,0,0.0055,0.0055,0.0054,0.0026,0.0026,0.0026,0.0025,-0.0029,-0.0031,-0.0032,0,0,0,0,0,0,0,0,0,0,0,0,0,0.0109,0.0109,0.0095,0.0095,0.0095,0.0056,0.0055,0.0054,0.0026,0.0026,0.0026,0.0025,-0.0029,-0.0031,-0.0032,0,0,0,0,0,0,0,0,0,0,0,0,0,0.0088,0.0109,0.0096,0.0077,0.0075,0.0056,0.0055,0.0054,0.0026,0.0026,0.0026,0.0025,-0.0028,-0.003,-0.0032,-0.0041,0,0,-0.0039,-0.0039,0,0,0,0,0,0,0,0,0.009,0.0088,0.008,0.0078,0.0076,0.0046,0.0039,0.0022,0.0026,0.0043,0.0025,0.0025,-0.0005,-0.0009,-0.0017,-0.0044,-0.0046,-0.0039,-0.004,-0.0041,-0.0041,0,0,0,0,0,0,0,0.0091,0.0089,0.0078,0.0079,0.0077,0.0057,0.0054,0.0036,0.002,0.0042,0.004,0.0037,-0.0006,-0.0015,-0.0019,-0.0047,-0.0039,-0.0041,-0.0042,-0.0043,-0.0083,-0.0083,0,0,0,0,0,0,0.0101,0.0091,0.008,0.0077,0.0084,0.0057,0.0054,0.0055,0.002,0.0015,0.0037,0.0036,-0.0012,-0.0016,-0.0021,-0.0019,-0.0041,-0.0043,-0.0044,-0.0083,-0.0083,-0.0083,0,0,0,0,0,0,0.0101,0.01,0.0081,0.0084,0.008,0.0058,0.0059,0.0054,0.0049,0.0017,0.0012,0.0038,-0.0012,-0.0018,-0.0031,-0.0022,-0.0044,-0.0045,-0.0083,-0.0083,-0.0083,-0.0025,0,0,0,0,0,0,0.0102,0.0101,0.0105,0.0085,0.008,0.0077,0.0059,0.0054,0.0049,0.0046,0.0016,0.001,-0.0012,-0.0028,-0.0033,-0.0025,-0.0047,-0.0083,-0.0083,-0.0083,-0.0027,-0.0023,-0.0019,0,0,0,0,0,0.0102,0.0112,0.0105,0.0104,0.0087,0.0078,0.0074,0.0056,0.0049,0.005,0.0029,0.0011,-0.003,-0.0029,-0.0036,-0.0028,-0.0084,-0.0083,-0.0083,-0.0029,-0.0024,-0.0019,0,0,0,0,0,0,0.0119,0.011,0.0102,0.0108,0.0096,0.0074,0.0074,0.0062,0.0046,0.0046,0.0014,0.0008,-0.0002,-0.0024,-0.0022,-0.004,-0.0061,-0.0061,-0.0017,-0.0013,-0.0009,0.0009,-0.0049,0,0,0,0,0,0.0126,0.0131,0.0115,0.012,0.0117,0.0097,0.0091,0.0081,0.0065,0.0058,0.0036,0.0012,-0.0007,-0.0016,-0.0037,-0.0044,-0.007,-0.0045,-0.0041,-0.0037,-0.0028,-0.0062,-0.006,-0.0082,-0.0082,-0.0082,0,0,0.0133,0.0129,0.0131,0.0124,0.0114,0.0119,0.0093,0.0092,0.0095,0.0054,0.0052,0.0025,-0.0006,-0.0015,-0.0021,-0.0031,-0.0046,-0.0037,-0.0033,-0.0026,-0.0062,-0.006,-0.0058,-0.0082,-0.0082,-0.0082,0,0,0.0153,0.0148,0.0159,0.0155,0.0147,0.0138,0.0141,0.0123,0.0115,0.0108,0.008,0.006,0.0032,0.0011,-0.0003,0.0009,-0.0025,0.0002,0.0039,0.0006,0.0007,0.0009,-0.0022,-0.0024,0.0006,0.0006,0.0006,0,0.0161,0.0176,0.016,0.017,0.0175,0.0152,0.0168,0.0155,0.0135,0.0133,0.0116,0.0074,0.0045,0.0034,0.0039,0.0019,-0.0003,0.0026,0.0012,0.0013,0.0013,-0.002,-0.0022,0.0009,0.0008,0.0008,0.0008,0,0.0188,0.0201,0.0209,0.0218,0.0219,0.023,0.0216,0.0213,0.02,0.0187,0.0172,0.0127,0.0105,0.0089,0.0069,0.006,0.0042,0.0021,0.0004,0.0019,-0.0017,-0.0021,0.0013,0.0012,0.0011,0.001,0,0,0.021,0.0226,0.023,0.0246,0.0248,0.0254,0.0263,0.0266,0.0277,0.0243,0.0248,0.0206,0.0182,0.0164,0.0129,0.01,0.0078,0.007,0.0067,0.0047,0.0008,0.0003,-0.0002,0.0056,0.0056,0.0056,-0.0017,0,0.0239,0.0273,0.0274,0.0311,0.0329,0.0318,0.0331,0.0328,0.0318,0.0315,0.0265,0.0256,0.0211,0.0203,0.0167,0.0104,0.007,0.01,-0.0009,-0.0012,-0.0013,-0.0006,0.0054,-0.002,-0.0021,-0.0022,-0.0022,0,0.027,0.029,0.0334,0.0365,0.0373,0.0394,0.0417,0.0426,0.0413,0.0403,0.038,0.034,0.0299,0.0253,0.0152,0.0176,0.0102,0.0043,0.0039,0.0013,-0.0025,-0.004,-0.003,-0.003,-0.0029,-0.0029,-0.0028,0,0.0298,0.0335,0.0376,0.0386,0.0414,0.0437,0.0455,0.0459,0.048,0.0466,0.0473,0.0409,0.0385,0.0285,0.0169,0.0162,0.0051,0.002,-0.0059,-0.0061,-0.006,-0.0061,-0.0057,-0.0057,-0.0057,-0.0057,-0.0057,0,0.033,0.0362,0.0398,0.0419,0.0474,0.048,0.0538,0.0539,0.0557,0.0592,0.0529,0.0529,0.0394,0.0313,0.0193,0.0063,0.0066,-0.0047,-0.0077,-0.0035,-0.0032,-0.0063,-0.0063,-0.006,-0.0059,-0.0059,-0.0058,0,0.0353,0.0374,0.0425,0.047,0.0492,0.0533,0.0602,0.0639,0.0648,0.0688,0.0688,0.0625,0.0521,0.0374,0.0211,0.0107,-0.0028,-0.008,-0.0014,-0.004,-0.0126,-0.0122,-0.0174,-0.0175,-0.0176,-0.0176,-0.0177,0,0.0365,0.0396,0.0466,0.0506,0.0534,0.06,0.0649,0.0683,0.0727,0.0746,0.0766,0.0686,0.0621,0.0399,0.0231,0.0001,-0.0039,-0.0113,-0.013,-0.0113,-0.0137,-0.0132,-0.0128,-0.0178,-0.0178,-0.0178,-0.0178,0,0.0388,0.042,0.0461,0.0544,0.0608,0.0682,0.0755,0.0791,0.0833,0.0844,0.0837,0.0721,0.0602,0.0413,0.0238,0.0068,-0.0066,-0.0121,-0.0121,-0.0138,-0.0118,-0.014,-0.0135,-0.018,-0.018,-0.018,-0.018,0,0.0409,0.0442,0.0503,0.0576,0.0658,0.0736,0.0775,0.083,0.0872,0.0891,0.0889,0.0758,0.069,0.0448,0.0286,0.0121,0.0066,-0.0001,-0.0009,-0.0009,0.0054,0.0105,0.0092,0,0,0,0,0,0.0423,0.046,0.0528,0.0608,0.0692,0.0741,0.0832,0.0865,0.0907,0.0913,0.0905,0.0795,0.0567,0.0471,0.0306,0.0244,0.0018,0.0041,-0.0068,-0.0192,-0.019,-0.0145,0,0,0,0,0,0,0.0431,0.0492,0.0523,0.0622,0.068,0.0776,0.0835,0.0865,0.0872,0.0891,0.0779,0.0739,0.0519,0.0662,0.0298,0.0249,0.0153,-0.0059,-0.0063,-0.0194,-0.0191,-0.0189,-0.0143,0,0,0,0,0]}]]